TIME,PRES,T(CTD),SAL,OXYGEN,RAWTEMP,T(OPTODE),TCPHASE,CHECK
1342937445,397.9899902343750000,17.1070003509521500,36.3851013183593750,211.5469970703125000,287.9899902343750000,17.1133499145507800,32.2030296325683600,13562
1342937541,392.3900146484375000,17.1326999664306640,36.3923988342285160,214.4485015869140600,287.0802917480469000,17.1412906646728500,32.0315704345703100,37278
1342937662,386.8099975585937500,17.2299003601074220,36.4126014709472660,216.1450958251953000,283.9584045410156000,17.2371692657470700,31.8961696624755860,12346
1342937801,380.4700012207031000,17.2929000854492200,36.4243011474609400,217.1537933349609400,282.0271911621094000,17.2964706420898440,31.8152694702148440,45289
1342937931,374.5799865722656000,17.4146003723144530,36.4434013366699200,219.0525054931640600,278.0331115722656000,17.4191093444824220,31.6585597991943360,39544
1342938062,368.2999877929687500,17.4398994445800780,36.4492988586425800,218.3876037597656200,277.0957946777344000,17.4478797912597660,31.6803894042968750,40124
1342938173,362.5499877929687500,17.4769992828369140,36.4588012695312500,218.8441009521484400,275.7846984863281000,17.4881305694580080,31.6380691528320300,4515
1342938285,356.3099975585937500,17.5447006225585940,36.4719009399414060,220.6862030029297000,273.6560058593750000,17.5534706115722660,31.5116500854492200,762
1342938387,350.4200134277344000,17.6226005554199220,36.4869995117187500,221.5415954589843800,271.2832031250000000,17.6263103485107420,31.4340095520019530,40736
1342938489,344.4899902343750000,17.6352996826171880,36.4846000671386700,221.1383972167968800,270.6070861816406000,17.6470508575439450,31.4455795288085940,56500
1342938601,338.1499938964844000,17.6807003021240230,36.4963989257812500,221.4723968505859400,269.2701110839844000,17.6880893707275400,31.4098701477050780,7583
1342938710,332.2999877929687500,17.7229003906250000,36.5079002380371100,223.4225006103515600,267.9625854492187500,17.7282104492187500,31.2909297943115230,37144
1342938822,326.7200012207031000,17.7586994171142580,36.5147018432617200,224.0090942382812500,266.6171875000000000,17.7695007324218750,31.2423000335693360,40626
1342938952,320.8999938964844000,17.7978992462158200,36.5210990905761700,224.3334960937500000,265.4475097656250000,17.8054008483886720,31.2094192504882800,64245
1342939101,315.0299987792969000,17.8057003021240230,36.5219993591308600,224.6107940673828000,265.1628112792969000,17.8141307830810550,31.1913509368896500,24049
1342939236,308.6199951171875000,17.8656005859375000,36.5312995910644500,224.5605926513672000,263.1588134765625000,17.8756294250488280,31.1660194396972660,6787
1342939357,302.4599914550781000,17.8437995910644530,36.5208015441894500,223.1961059570312500,264.1445922851562500,17.8453807830810550,31.2497196197509770,65167
1342939478,296.2799987792969000,17.8677005767822270,36.5150985717773440,217.9859008789062500,263.1789855957031000,17.8750095367431640,31.5076999664306640,32401
1342939589,290.2500000000000000,17.9195003509521500,36.5205993652343750,215.7642059326172000,261.5856018066406000,17.9239006042480470,31.6036491394042970,19074
1342939692,284.5899963378906000,17.9104003906250000,36.5063018798828100,208.4270935058593800,261.3346862792969000,17.9316005706787100,32.0010185241699200,2911
1342939785,279.2900085449219000,17.9803009033203120,36.5214004516601560,208.8287048339843800,258.2643127441406000,18.0258007049560550,31.9354591369628900,38378
1342939887,273.2699890136719000,18.1088008880615230,36.5491981506347660,214.4028930664062500,255.3572998046875000,18.1149806976318360,31.5902805328369140,24293
1342939987,267.3500061035156000,18.1431999206542970,36.5559005737304700,217.6815948486328000,254.2512054443359400,18.1489105224609380,31.4006004333496100,56492
1342940090,261.1400146484375000,18.1854000091552730,36.5612983703613300,216.8852996826172000,252.8836975097656200,18.1908607482910160,31.4235591888427730,33513
1342940187,255.7899932861328000,18.2208995819091800,36.5633010864257800,218.0023040771484400,251.6425933837890600,18.2289390563964840,31.3475608825683600,44789
1342940336,249.8500061035156200,18.2513999938964840,36.5677986145019500,219.0980072021484400,250.6983947753906200,18.2579002380371100,31.2772197723388670,55563
1342940470,243.3899993896484400,18.3019008636474600,36.5709991455078100,219.9553985595703000,249.1533050537109400,18.3052902221679700,31.2110691070556640,59610
1342940582,237.2400054931640600,18.3048992156982420,36.5691986083984400,220.8986053466797000,248.8995971679687500,18.3130702972412100,31.1584205627441400,44596
1342940694,231.5700073242187500,18.3041000366210940,36.5628013610839840,221.7239074707031200,248.9347991943359400,18.3119907379150400,31.1163902282714840,3594
1342940814,225.7799987792968800,18.3414993286132800,36.5606994628906250,222.2413940429687500,247.5621948242187500,18.3540992736816400,31.0711002349853500,59681
1342940945,219.6499938964843800,18.3453006744384770,36.5488014221191400,226.2012023925781200,247.5881042480468800,18.3533000946044920,30.8698902130126950,34408
1342941065,213.6000061035156200,18.3729000091552730,36.5432014465332000,228.1546936035156200,246.5364990234375000,18.3855495452880860,30.7577800750732420,45162
1342941186,207.5899963378906200,18.4713001251220700,36.5547981262207000,227.9362945556640600,243.6645965576172000,18.4736404418945300,30.7296390533447270,20583
1342941316,201.5500030517578000,18.4638004302978500,36.5301017761230500,231.0917968750000000,243.5496978759765600,18.4771595001220700,30.5721092224121100,10653
1342941447,195.8999938964843800,18.5207004547119140,36.5341987609863300,232.8813018798828000,242.0417022705078000,18.5234203338623050,30.4644603729248050,8740
1342941595,189.8699951171875000,18.5533008575439450,36.5325012207031250,232.9459991455078000,240.6992034912109400,18.5645904541015620,30.4432907104492200,4204
1342941753,183.9600067138672000,18.6844005584716800,36.5477981567382800,230.8484954833984400,236.6631011962890600,18.6883697509765620,30.4909591674804700,46000
1342941891,177.0500030517578000,18.8034992218017580,36.5546989440918000,228.8833007812500000,232.9075012207031200,18.8035507202148440,30.5370502471923830,33231
1342941993,171.2299957275390600,18.7980003356933600,36.5419998168945300,232.4328002929687500,232.6251068115234400,18.8122100830078120,30.3594703674316400,45550
1342942105,165.3000030517578000,18.9323005676269530,36.5632019042968750,230.6150970458984400,228.5359039306640600,18.9376106262207030,30.3930702209472660,38454
1342942226,159.6000061035156200,18.9423999786376950,36.5564994812011700,231.2317962646484400,228.2129058837890600,18.9475193023681640,30.3586692810058600,37895
1342942365,153.8800048828125000,19.0149993896484380,36.5639991760253900,233.4962005615234400,225.8934936523437500,19.0186500549316400,30.2177696228027340,46005
1342942514,147.3500061035156200,19.0422000885009770,36.5504989624023440,235.5386047363281200,224.8486938476562500,19.0506896972656250,30.1058902740478500,2336
1342942625,141.1999969482422000,19.1439990997314450,36.5652008056640600,236.2868957519531200,221.6361999511718800,19.1492099761962900,30.0275402069091800,1199
1342942728,135.0599975585937500,19.1788005828857420,36.5708007812500000,236.6678009033203000,220.4913024902343800,19.1843204498291000,29.9941596984863280,5843
1342942825,129.8399963378906200,19.1973991394042970,36.5680999755859400,238.5744934082031200,219.8336944580078000,19.2044906616210940,29.8956604003906250,46710
1342942997,123.6900024414062500,19.2261009216308600,36.5677986145019500,240.8417968750000000,218.9521026611328000,19.2315196990966800,29.7783794403076170,53433
1342943136,117.7500000000000000,19.2770004272460940,36.5703010559082000,242.1878967285156200,217.3777008056640600,19.2798099517822270,29.6955604553222660,22810
1342943275,111.9499969482421900,19.2886009216308600,36.5640983581543000,242.7068939208984400,216.8251953125000000,19.2967491149902340,29.6642494201660160,26976
1342943433,105.7699966430664000,19.3512992858886720,36.5716018676757800,242.6811981201172000,214.9058074951172000,19.3556194305419920,29.6402091979980470,48170
1342943571,99.3000030517578100,19.3866996765136720,36.5708999633789060,243.1040954589843800,213.5960998535156200,19.3957901000976560,29.6035804748535160,59627
1342943683,93.4100036621093800,19.4554996490478500,36.5769004821777340,244.2931060791015600,211.3332977294922000,19.4651908874511720,29.5198593139648440,39859
1342943785,87.0000000000000000,19.5512008666992200,36.5787010192871100,246.5108032226562500,208.2765960693359400,19.5589408874511720,29.3793601989746100,25796
1342943883,80.2200012207031200,19.7119007110595700,36.5886001586914060,250.9669036865234400,203.4297943115234400,19.7076091766357420,29.1182403564453120,6721
1342944011,74.4100036621093800,19.7663993835449220,36.5968017578125000,251.8845062255859400,201.4113006591797000,19.7695198059082030,29.0517597198486330,61928
1342944387,67.2099990844726600,20.1587009429931640,36.5948982238769500,258.0976867675781000,188.7151031494140600,20.1590499877929700,28.6211891174316400,9437
1342944490,60.9399986267089840,20.4286003112792970,36.5968017578125000,261.8096008300781000,180.0234985351562500,20.4258098602294920,28.3545799255371100,41330
1342944590,55.3499984741210940,20.7147998809814450,36.5965003967285160,264.4364929199219000,170.0193939208984400,20.7329597473144530,28.1196403503417970,44373
1342944711,49.7200012207031250,21.2695007324218750,36.5885009765625000,265.1567077636719000,153.2420959472656200,21.2484302520751950,27.8796596527099600,51992
1342944906,43.1100006103515600,21.9617004394531250,36.5629997253418000,265.4634094238281000,131.1080017089843800,21.9293308258056640,27.5916404724121100,59354
1342945118,36.5600013732910160,22.8743991851806640,36.4922981262207000,259.7759094238281000,100.7065963745117200,22.8666095733642580,27.4478092193603500,46188
1342945218,29.4899997711181640,23.0729999542236330,36.4766006469726560,257.4710083007812500,94.0426864624023400,23.0724506378173830,27.4611396789550780,20171
1342945314,23.7500000000000000,23.4437007904052730,36.4527015686035160,255.1607971191406200,82.6121368408203100,23.4258804321289060,27.4167995452880860,31704
1342945764,17.8099994659423830,25.7940006256103500,36.4392013549804700,241.6459045410156200,9.3132286071777340,25.7057094573974600,27.1001396179199220,52527
1342946313,11.8199996948242190,27.3127994537353500,36.4328994750976560,228.3712005615234400,-42.7841796875000000,27.3441295623779300,27.0627994537353500,770
1342946434,5.4099998474121090,27.9694004058837900,36.4467010498046900,224.3562011718750000,-62.1508102416992200,27.9578895568847660,27.0135993957519530,18462
1342946550,0.7500000000000000,0.0000000000000000,0.0000000000000000,224.2214050292968800,-62.2492485046386700,27.9610195159912100,27.0187397003173830,4784
